Tracking 19717 objects as of 24-Jun-2019
HD Live streaming from Space Station
objects crossing your sky now

DELTA 1 DEB

Track DELTA 1 DEB now!
10-day predictions


NORAD ID: 37662
Int'l Code: 1978-026JZ
Perigee: 828.1 km
Apogee: 881.3 km
Inclination: 98.9 °
Period: 101.9 minutes
Semi major axis: 7225 km
RCS: 0.0109 m2 (small)
Launch date: March 5, 1978
Source: United States (US)
Launch site: AIR FORCE WESTERN TEST RANGE (AFWTR)

Note: This is SATELLITE DEBRIS
aabbcc
Your satellite tracking list
Your tracking list is empty




NASA's NSSDC Master Catalog

Two Line Element Set (TLE):
1 37662U 78026JZ  19174.10701987  .00000029  00000-0  38715-4 0  9991
2 37662  98.8557 145.3100 0036803 120.9421 239.5377 14.13463618875082
Source of the keplerian elements: AFSPC